Chrysopouli, Greece

6:39 PM EEST on May 28, 2017 (GMT +0300)
Megas Alexandros

Weather History for LGKV - September, 2013

Change the Weather History Date:

Tuesday, September 17, 2013

  Actual Average Record
Temperature  
Mean Temperature 67 °F -  
Max Temperature 77 °F 75 °F 87 °F (2011)
Min Temperature 57 °F 58 °F 53 °F (2002)
Cooling Degree Days 2    
Growing Degree Days 17 (Base 50)    
Moisture  
Dew Point 56 °F    
Average Humidity 66    
Maximum Humidity 94    
Minimum Humidity 38    
Precipitation  
Precipitation 0.00 in - - ()
Sea Level Pressure  
Sea Level Pressure 29.63 in    
Wind  
Wind Speed 4 mph ()    
Max Wind Speed 10 mph    
Max Gust Speed -    
Visibility 6.2 miles    
Events      
Averages and records for this station are not official NWS values.
T = Trace of Precipitation, MM = Missing Value Source: Averaged Metar Reports

Daily Weather History Graph

Daily Weather History Graph

Search for Another Location

Airport or City:

Trip Planner

Search our weather history database for the weather conditions in past years. The results will help you decide how hot, cold, wet, or windy it might be!

Date:

Astronomy

Sep. 17, 2013 Rise Set
Actual Time 7:04 AM EEST 7:27 PM EEST
Civil Twilight 6:36 AM EEST 7:54 PM EEST
Nautical Twilight 6:04 AM EEST 8:27 PM EEST
Astronomical Twilight 5:30 AM EEST 9:00 PM EEST
Moon 6:03 PM EEST (9/17) 4:36 AM EEST (9/17)
Length of Visible Light 13h 18m
Length of Day
12h 23m
Waxing Gibbous, 94% of the Moon is Illuminated
Sep 17
Waxing Gibbous
Sep 19
Full
Sep 27
Last Quarter
Oct 5
New
Oct 12
First Quarter

Hourly Weather History & Observations

Time (EEST) Temp. Dew Point Humidity Pressure Visibility Wind Dir Wind Speed Gust Speed Precip Events Conditions
4:50 AM 59.0 °F 55.4 °F 88% 29.65 in 6.2 mi Calm Calm - N/A   Partly Cloudy
5:20 AM 59.0 °F 55.4 °F 88% 29.65 in 6.2 mi Calm Calm - N/A   Partly Cloudy
5:50 AM 59.0 °F 55.4 °F 88% 29.65 in 6.2 mi Calm Calm - N/A   Partly Cloudy
6:50 AM 57.2 °F 55.4 °F 94% 29.65 in 6.2 mi NE 4.6 mph - N/A   Partly Cloudy
7:20 AM 57.2 °F 55.4 °F 94% 29.65 in 6.2 mi NE 4.6 mph - N/A   Partly Cloudy
7:50 AM 59.0 °F 55.4 °F 88% 29.65 in 6.2 mi NE 4.6 mph - N/A   Scattered Clouds
8:20 AM 60.8 °F 55.4 °F 82% 29.65 in 6.2 mi ENE 4.6 mph - N/A   Partly Cloudy
8:50 AM 64.4 °F 55.4 °F 73% 29.65 in 6.2 mi Calm Calm - N/A   Partly Cloudy
9:20 AM 66.2 °F 55.4 °F 68% 29.65 in 6.2 mi Calm Calm - N/A   Partly Cloudy
9:50 AM 68.0 °F 57.2 °F 68% 29.68 in 6.2 mi Calm Calm - N/A   Partly Cloudy
10:20 AM 69.8 °F 57.2 °F 64% 29.68 in 6.2 mi Calm Calm - N/A   Partly Cloudy
10:50 AM 71.6 °F 57.2 °F 60% 29.68 in 6.2 mi WSW 5.8 mph - N/A   Partly Cloudy
11:50 AM 73.4 °F 46.4 °F 38% 29.68 in 6.2 mi WSW 6.9 mph - N/A   Partly Cloudy
12:50 PM 75.2 °F 50.0 °F 41% 29.68 in 6.2 mi SW 9.2 mph - N/A   Partly Cloudy
1:20 PM 75.2 °F 50.0 °F 41% 29.65 in 6.2 mi SSW 8.1 mph - N/A   Partly Cloudy
1:50 PM 77.0 °F 51.8 °F 41% 29.65 in 6.2 mi South 8.1 mph - N/A   Partly Cloudy
2:20 PM 77.0 °F 51.8 °F 41% 29.65 in 6.2 mi SSW 6.9 mph - N/A   Partly Cloudy
2:50 PM 75.2 °F 57.2 °F 53% 29.62 in 6.2 mi SSW 9.2 mph - N/A   Scattered Clouds
3:20 PM 75.2 °F 57.2 °F 53% 29.62 in 6.2 mi SSW 8.1 mph - N/A   Scattered Clouds
3:50 PM 75.2 °F 55.4 °F 50% 29.62 in 6.2 mi SW 8.1 mph - N/A   Scattered Clouds
4:20 PM 75.2 °F 55.4 °F 50% 29.62 in 6.2 mi SW 8.1 mph - N/A   Scattered Clouds
4:50 PM 73.4 °F 55.4 °F 53% 29.62 in 6.2 mi SW 10.4 mph - N/A   Scattered Clouds
5:20 PM 73.4 °F 55.4 °F 53% 29.62 in 6.2 mi SW 9.2 mph - N/A   Mostly Cloudy
5:50 PM 73.4 °F 62.6 °F 69% 29.59 in 6.2 mi SW 6.9 mph - N/A   Mostly Cloudy
6:20 PM 73.4 °F 62.6 °F 69% 29.59 in 6.2 mi West 8.1 mph - N/A   Mostly Cloudy
6:50 PM 71.6 °F 60.8 °F 69% 29.59 in 6.2 mi West 6.9 mph - N/A   Mostly Cloudy
7:20 PM 69.8 °F 60.8 °F 73% 29.62 in 6.2 mi West 5.8 mph - N/A   Mostly Cloudy
7:50 PM 69.8 °F 60.8 °F 73% 29.59 in 6.2 mi WSW 5.8 mph - N/A   Mostly Cloudy
8:20 PM 69.8 °F 60.8 °F 73% 29.59 in 6.2 mi WSW 5.8 mph - N/A   Mostly Cloudy
8:50 PM 68.0 °F 62.6 °F 83% 29.59 in 6.2 mi Calm Calm - N/A   Mostly Cloudy
9:20 PM 68.0 °F 62.6 °F 83% 29.59 in 6.2 mi Calm Calm - N/A   Mostly Cloudy